Location: Moscow
(38.8570°N, 84.2291°W)
Time: 20:10:08
(UTC+00:00)

O/OREOS (USA 219) - Pass Details

Date: 12 March 2026
Orbit: 577 x 597 km, 72.0° (Epoch: 21 April)

Event Time Altitude Azimuth Distance (km) Brightness Sun altitude
Rises 02:24:04 0° 318° (NW) 2,840 ? -32.0°
Reaches altitude 10° 02:27:12 10° 294° (WNW) 1,928 ? -32.5°
Maximum altitude 02:29:31 14° 261° (W) 1,653 ? -32.9°
Enters shadow 02:30:27 14° 246° (WSW) 1,697 ? -33.1°
